Weather History for Scappoose, OR

Change the Weather History Date:

Friday, November 22, 2013

  Actual Average Record
Temperature  
Mean Temperature 37 °F -  
Max Temperature 51 °F - 56 °F (2011)
Min Temperature 21 °F - 21 °F (2000)
Degree Days  
Heating Degree Days 29    
Month to date heating degree days 420  
Since 1 July heating degree days 990  
Cooling Degree Days 0    
Month to date cooling degree days 0  
Year to date cooling degree days 396  
Moisture  
Dew Point 21 °F    
Average Humidity 55    
Maximum Humidity 88    
Minimum Humidity 21    
Precipitation  
Precipitation 0.00 in - 2.88 in (2011)
Month to date precipitation 3.05  
Year to date precipitation 25.56  
Sea Level Pressure  
Sea Level Pressure 30.52 in    
Wind  
Wind Speed 2 mph (WSW)    
Max Wind Speed 7 mph    
Max Gust Speed 8 mph    
Visibility 10 miles    
Events      
T = Trace of Precipitation, MM = Missing Value Source: NWS Daily Summary

Daily Weather History Graph

Daily Weather History Graph

Search for Another Location

Airport:

Trip Planner

Search our weather history database for the weather conditions in past years. The results will help you decide how hot, cold, wet, or windy it might be!

Date:

Astronomy

Nov. 22, 2013 Rise Set
Actual Time 7:21 AM PST 4:33 PM PST
Civil Twilight 6:48 AM PST 5:06 PM PST
Nautical Twilight 6:11 AM PST 5:43 PM PST
Astronomical Twilight 5:36 AM PST 6:18 PM PST
Moon 9:15 PM PST (11/22) 11:04 AM PST (11/22)
Length of Visible Light 10h 18m
Length of Day
9h 12m
Waning Gibbous, 77% of the Moon is Illuminated
Nov 22
Waning Gibbous
Nov 25
Last Quarter
Dec 2
New
Dec 9
First Quarter
Dec 17
Full

Hourly Weather History & Observations

Time (PST) Temp. Windchill Dew Point Humidity Pressure Visibility Wind Dir Wind Speed Gust Speed Precip Events Conditions
12:53 AM 25.0 °F - 19.9 °F 81% 30.59 in 10.0 mi Calm Calm - N/A   Clear
1:53 AM 24.1 °F 19.7 °F 19.9 °F 84% 30.59 in 10.0 mi WNW 3.5 mph - N/A   Clear
2:53 AM 24.1 °F 19.7 °F 19.9 °F 84% 30.58 in 10.0 mi West 3.5 mph - N/A   Clear
3:53 AM 25.0 °F - 19.9 °F 81% 30.58 in 10.0 mi Calm Calm - N/A   Clear
4:53 AM 24.1 °F - 19.9 °F 84% 30.58 in 10.0 mi Calm Calm - N/A   Clear
5:53 AM 24.1 °F - 19.9 °F 84% 30.58 in 10.0 mi Calm Calm - N/A   Clear
6:53 AM 23.0 °F - 19.0 °F 85% 30.59 in 10.0 mi Calm Calm - N/A   Clear
7:53 AM 24.1 °F - 19.0 °F 81% 30.60 in 10.0 mi Calm Calm - N/A   Clear
8:53 AM 28.9 °F - 24.1 °F 82% 30.59 in 10.0 mi Calm Calm - N/A   Clear
9:53 AM 34.0 °F - 25.0 °F 70% 30.59 in 10.0 mi Calm Calm - N/A   Clear
10:53 AM 39.0 °F - 26.1 °F 60% 30.57 in 10.0 mi Calm Calm - N/A   Clear
11:53 AM 46.0 °F - 21.9 °F 39% 30.54 in 10.0 mi Calm Calm - N/A   Clear
12:53 PM 50.0 °F - 15.1 °F 25% 30.51 in 10.0 mi Calm Calm - N/A   Clear
1:53 PM 51.1 °F - 12.9 °F 22% 30.49 in 10.0 mi SSW 3.5 mph - N/A   Clear
2:53 PM 51.1 °F - 19.0 °F 28% 30.48 in 10.0 mi SE 3.5 mph - N/A   Clear
3:53 PM 48.0 °F - 21.9 °F 36% 30.47 in 10.0 mi Calm Calm - N/A   Clear
4:53 PM 36.0 °F - 25.0 °F 64% 30.46 in 10.0 mi Calm Calm - N/A   Clear
5:53 PM 33.1 °F 27.7 °F 24.1 °F 70% 30.46 in 10.0 mi West 5.8 mph - N/A   Clear
6:53 PM 30.9 °F 27.5 °F 23.0 °F 72% 30.46 in 10.0 mi West 3.5 mph - N/A   Clear
7:53 PM 30.0 °F 25.2 °F 23.0 °F 75% 30.46 in 10.0 mi West 4.6 mph - N/A   Clear
8:53 PM 28.9 °F 25.2 °F 21.9 °F 75% 30.46 in 10.0 mi Variable 3.5 mph - N/A   Clear
9:53 PM 28.0 °F 24.2 °F 21.9 °F 78% 30.46 in 10.0 mi West 3.5 mph - N/A   Clear
10:53 PM 28.0 °F 21.7 °F 21.9 °F 78% 30.44 in 10.0 mi WSW 5.8 mph - N/A   Clear
11:53 PM 28.0 °F 21.7 °F 21.0 °F 75% 30.43 in 10.0 mi West 5.8 mph - N/A   Clear